Location: Unspecified
(44.0704°N, 88.6889°W)
Time: 14:25:54
(UTC+02:00)

Altair - Pass Details

Date: 20 June 2019
Orbit: 1501 x 1683 km, 47.2° (Epoch: 21 July)

Event Time Altitude Azimuth Distance (km) Brightness Sun altitude
Rises 11:52:57 0° 293° (WNW) 4,900 9.8 -3.5°
Reaches altitude 10° 11:56:43 10° 282° (WNW) 3,926 9.3 -3.0°
Maximum altitude 12:04:33 27° 230° (SW) 2,838 8.4 -1.8°
Drops below altitude 10° 12:12:26 10° 179° (S) 3,930 9.3 -0.7°
Sets 12:16:15 0° 167° (SSE) 4,904 9.9 -0.1°
